Location: Riverview Farm Park
(37.0930°N, 76.5291°W)
Time: 15:23:15
(UTC-05:00)

N. Korean satellite - Visible Passes

Search period start: 18 February 2018 00:00
Search period end: 28 February 2018 00:00
Orbit: 459 x 514 km, 97.2° (Epoch: 17 February)

Date Brightness Start Highest point End Pass type
(mag) Time Alt. Az. Time Alt. Az. Time Alt. Az.
18 Feb 8.7 06:17:08 10° NNE 06:20:30 34° E 06:23:53 10° SSE visible
18 Feb 8.0 18:24:28 10° S 18:27:43 41° W 18:31:02 10° NNW visible
19 Feb 10.0 05:54:12 10° NE 05:56:40 17° E 05:59:09 10° SE visible
21 Feb 9.5 18:47:26 10° SW 18:50:03 20° W 18:52:43 10° NW visible
22 Feb 8.8 06:15:41 10° NNE 06:19:02 33° E 06:22:26 10° SSE visible
22 Feb 7.9 18:22:56 10° S 18:26:13 43° W 18:29:34 10° NNW visible
23 Feb 10.1 05:52:45 10° NE 05:55:12 17° E 05:57:39 10° SE visible
24 Feb 10.5 19:11:53 10° W 19:12:27 10° W 19:12:59 10° W visible
25 Feb 9.5 18:45:49 10° SSW 18:48:31 21° W 18:51:15 10° NW visible
26 Feb 7.8 18:21:21 10° S 18:24:40 45° W 18:28:03 10° NNW visible
27 Feb 10.1 05:51:16 10° NE 05:53:41 16° E 05:56:05 10° SE visible
